Location: Kerguer�zec
(48.4509°N, 4.7600°W)
Time: 21:52:17
(UTC+00:00)

FALCON 9 DEB - Pass Details

Date: 09 April 2020
Orbit: 429 x 442 km, 53.0° (Epoch: 26 May)

Event Time Altitude Azimuth Distance (km) Brightness Sun altitude
Rises 21:01:39 0° 252° (WSW) 2,427 7.4 -18.7°
Reaches altitude 10° 21:03:47 10° 256° (WSW) 1,558 6.4 -19.0°
Maximum altitude 21:07:16 66° 338° (NNW) 488 3.5 -19.4°
Enters shadow 21:08:32 35° 49° (NE) 726 4.1 -19.6°
